Zurück zum Katalog

DELTA 1 DEB

AktivLEO
NORAD 10177·DEBRIS·🇺🇸 United States

Gestartet Jul 14, 1977 von Cape Canaveral Space Force Station

Loading…

Nächste Überflüge (nächste 24 Stunden)

TLE

AktuellSource: Space-Track

Epoche: Sep 14, 2026, 07:49 UTC

1 10177U 77065F   26257.32571972  .00005634  00000-0  81949-3 0  9991
2 10177  28.2349 326.0510 0466323 260.8142  93.9400 14.20145112309727

Verfolge DELTA 1 DEB in Echtzeit mit AllMySat

Download on the App Store